sat.trackr.live / text

‹ back to catalog

YAOGAN-10

NORAD 36834 · 2010-038A

PAYLOAD ACTIVE UNKNOWN

§ Identity

Operator
Country
PRC
Launch date
2010-08-09
Launch site
TAISC
Launch vehicle
Mass (kg)
RCS (m²)
4.80

Purposes: earth_obs

External: N2YO · Heavens-Above · Gunter

§ Orbital elements

Epoch: 2026-05-25T04:22:24.178656Z

Period
96.95 min
Inclination
97.8994°
Eccentricity
0.0001626
Mean motion
14.85268612 rev/d
Perigee alt
611.6 km
Apogee alt
613.9 km
Semi-major
6,990.9 km
B*
2.3003e-4
RAAN
168.7707°
Arg perigee
93.6591°
Mean anomaly
356.1406°
Rev number
85,379

§ Raw data

YAOGAN-101 36834U 10038A   26145.18222429  .00001921  00000+0  23003-3 0  99972 36834  97.8994 168.7707 0001626  93.6591 356.1406 14.85268612853796

JSON: /api/v1/satellites/36834 · /tle

For live sub-satellite position, see the globe view (requires WebGL).

§ Visibility from observer

Set your observer location to see the next 7 days of passes ≥ 10°. The values pass through the URL so the page stays shareable.

No JS? Fill the form by hand. The geolocation button needs JavaScript.

§ Radio — SatNOGS DB

ModeDescriptionDownlinkUplink
FM S-band telemetry 2.254 GHz
FM S-band telemetry 2.238 GHz

2 transmitters · refreshed weekly from db.satnogs.org